User: anonymous
Location: Fort Frances
(48.6170°N, 93.4170°W)
Time: 06:43:17
(UTC-05:00)
Language:

Iridium 53 - Orbit

View from above orbital plane
View from above orbital plane
View from above satellite
View from above satellite

Ground track
Ground track

The orbit data is extracted from the following two-line orbital elements,

1 25173U 98010E   14113.47610417  .00000029  00000-0  31700-5 0  7542
2 25173 086.3937 111.3563 0002248 101.8828 051.4118 14.34213214846834
Epoch (UTC): 23 April 2014 11:25:35
Eccentricity: 0.0002248
inclination: 86.3937°
perigee height: 776 km
apogee height: 779 km
right ascension of ascending node: 111.3563°
argument of perigee: 101.8828°
revolutions per day: 14.34213214
mean anomaly at epoch: 51.4118°
orbit number at epoch: 84683

The dashed part of the orbit path shows where the satellite is in the earth's shadow,  

DLR